Mt. Pocono, PA

12:29 AM EST on November 22, 2019 (GMT -0500)
Pocono Mountains Municipal

Weather History for KMPO - October, 2019

Change the Weather History Date:

Tuesday, October 22, 2019

  Actual Average Record
Temperature  
Mean Temperature 50 °F 46 °F  
Max Temperature 55 °F 56 °F 81 °F (1979)
Min Temperature 46 °F 37 °F 16 °F (1907)
Degree Days  
Heating Degree Days 14 18  
Month to date heating degree days 309 342  
Since 1 July heating degree days 487 610  
Cooling Degree Days 0 0  
Month to date cooling degree days 5 0  
Year to date cooling degree days 348 313  
Moisture  
Dew Point 51 °F    
Average Humidity 100    
Maximum Humidity 100    
Minimum Humidity 89    
Precipitation  
Precipitation 0.87 in 0.13 in 2.86 in (1970)
Month to date precipitation 4.51 3.10  
Year to date precipitation 40.73 39.44  
Sea Level Pressure  
Sea Level Pressure 29.95 in    
Wind  
Wind Speed 9 mph ()    
Max Wind Speed 17 mph    
Max Gust Speed 23 mph    
Visibility 3.7 miles    
Events Fog , Rain    
T = Trace of Precipitation, MM = Missing Value Source: Averaged Metar Reports

Daily Weather History Graph

Daily Weather History Graph

Search for Another Location

Airport or City:

Astronomy

Oct. 22, 2019 Rise Set
Actual Time 7:20 AM EDT 6:10 PM EDT
Civil Twilight 6:52 AM EDT 6:38 PM EDT
Nautical Twilight 6:20 AM EDT 7:10 PM EDT
Astronomical Twilight 5:48 AM EDT 7:42 PM EDT
Moon 12:23 AM EDT 3:22 PM EDT
Length of Visible Light 11h 46m
Length of Day
10h 50m
Last Quarter, 37% of the Moon is Illuminated
Oct 22
Last Quarter
Oct 27
New
Nov 4
First Quarter
Nov 12
Full
Nov 19
Last Quarter

Hourly Weather History & Observations

Time (EDT) Temp. Windchill Dew Point Humidity Pressure Visibility Wind Dir Wind Speed Gust Speed Precip Events Conditions
12:53 AM 51.1 °F - 48.9 °F 92% 30.12 in 10.0 mi South 10.4 mph - N/A   Mostly Cloudy
1:53 AM 50.0 °F - 50.0 °F 100% 30.08 in 10.0 mi ESE 9.2 mph - N/A   Overcast
2:04 AM 50.0 °F - 50.0 °F 100% 30.07 in 10.0 mi ESE 10.4 mph - N/A   Overcast
2:11 AM 50.0 °F - 48.9 °F 96% 30.07 in 10.0 mi ESE 8.1 mph - N/A   Overcast
2:53 AM 48.9 °F - 48.9 °F 100% 30.07 in 10.0 mi SE 12.7 mph - N/A   Overcast
3:29 AM 50.0 °F - 50.0 °F 100% 30.08 in 10.0 mi SE 9.2 mph - N/A   Overcast
4:05 AM 48.9 °F - 48.9 °F 100% 30.05 in 10.0 mi SE 9.2 mph - N/A   Overcast
4:53 AM 48.9 °F - 48.9 °F 100% 30.05 in 8.0 mi ESE 9.2 mph - N/A   Overcast
5:40 AM 48.0 °F - 48.0 °F 100% 30.05 in 1.8 mi SE 9.2 mph - N/A   Overcast
5:53 AM 48.0 °F - 48.0 °F 100% 30.05 in 0.8 mi ESE 10.4 mph - N/A   Mist
6:13 AM 48.0 °F - 48.0 °F 100% 30.03 in 0.2 mi ESE 9.2 mph - N/A Fog Fog
6:24 AM 48.0 °F - 48.0 °F 100% 30.03 in 1.0 mi ESE 13.8 mph - N/A   Overcast
6:27 AM 48.0 °F - 48.0 °F 100% 30.03 in 4.0 mi ESE 15.0 mph 19.6 mph N/A   Overcast
6:51 AM 48.2 °F - 48.2 °F 100% 30.01 in 8.0 mi ESE 12.7 mph - N/A   Overcast
6:53 AM 48.0 °F - 48.0 °F 100% 30.04 in 8.0 mi ESE 11.5 mph - N/A   Overcast
7:39 AM 46.9 °F - 46.9 °F 100% 30.03 in 4.0 mi ESE 9.2 mph - N/A   Overcast
7:45 AM 46.9 °F - 46.9 °F 100% 30.03 in 2.0 mi ESE 10.4 mph - N/A   Overcast
7:53 AM 46.9 °F - 46.9 °F 100% 30.03 in 1.5 mi East 12.7 mph - 0.00 in Rain Light Rain
8:23 AM 46.9 °F - 46.9 °F 100% 30.01 in 2.0 mi ESE 13.8 mph 20.7 mph 0.00 in Rain Light Rain
8:29 AM 46.9 °F - 46.9 °F 100% 30.03 in 5.0 mi ESE 10.4 mph - 0.00 in   Overcast
8:53 AM 46.0 °F 41.4 °F 45.0 °F 96% 30.05 in 10.0 mi East 9.2 mph - 0.00 in   Overcast
9:09 AM 46.0 °F 41.0 °F 46.0 °F 100% 30.03 in 2.5 mi East 10.4 mph 17.3 mph N/A   Overcast
9:17 AM 46.0 °F 42.5 °F 46.0 °F 100% 30.03 in 1.5 mi East 6.9 mph 17.3 mph 0.00 in Rain Light Rain
9:24 AM 46.0 °F 41.0 °F 46.0 °F 100% 30.03 in 1.5 mi ESE 10.4 mph - 0.00 in   Overcast
9:36 AM 46.0 °F 41.4 °F 46.0 °F 100% 30.03 in 2.5 mi ESE 9.2 mph - 0.00 in   Overcast
9:53 AM 46.0 °F 43.1 °F 46.0 °F 100% 30.05 in 2.0 mi East 5.8 mph - 0.00 in   Overcast
10:06 AM 46.9 °F - 46.9 °F 100% 30.02 in 1.0 mi East 6.9 mph - 0.00 in Rain Light Rain
10:53 AM 46.9 °F - 46.9 °F 100% 30.02 in 0.5 mi East 8.1 mph - 0.01 in Fog Fog
11:02 AM 46.9 °F - 46.9 °F 100% 30.01 in 0.2 mi East 5.8 mph - 0.00 in Fog Fog
11:53 AM 48.0 °F - 48.0 °F 100% 30.01 in 0.2 mi East 6.9 mph - 0.01 in Fog , Rain Light Rain
12:53 PM 50.0 °F - 50.0 °F 100% 29.97 in 0.2 mi ESE 10.4 mph - 0.01 in Fog , Rain Light Rain
1:53 PM 51.1 °F - 51.1 °F 100% 29.91 in 0.2 mi ESE 12.7 mph - 0.01 in Fog , Rain Light Rain
2:53 PM 52.0 °F - 52.0 °F 100% 29.88 in 0.2 mi ESE 13.8 mph 23.0 mph 0.02 in Fog , Rain Light Rain
3:53 PM 52.0 °F - 52.0 °F 100% 29.86 in 0.2 mi ESE 9.2 mph 19.6 mph 0.01 in Fog , Rain Light Rain
4:53 PM 53.1 °F - 53.1 °F 100% 29.86 in 0.2 mi ESE 11.5 mph - 0.02 in Fog , Rain Light Rain
5:22 PM 53.1 °F - 53.1 °F 100% 29.84 in 0.5 mi East 8.1 mph - 0.05 in Fog , Rain Light Rain
5:53 PM 53.1 °F - 53.1 °F 100% 29.87 in 0.5 mi ESE 6.9 mph - 0.14 in Fog , Rain Rain
6:06 PM 53.1 °F - 53.1 °F 100% 29.86 in 1.8 mi ESE 9.2 mph - 0.05 in Rain Rain
6:11 PM 53.1 °F - 53.1 °F 100% 29.85 in 3.0 mi East 6.9 mph - 0.06 in Rain Rain
6:18 PM 54.0 °F - 54.0 °F 100% 29.84 in 1.8 mi East 8.1 mph - 0.07 in Rain Light Rain
6:40 PM 54.0 °F - 54.0 °F 100% 29.84 in 0.8 mi East 9.2 mph - 0.10 in Rain Light Rain
6:53 PM 54.0 °F - 54.0 °F 100% 29.85 in 1.0 mi East 8.1 mph - 0.12 in Rain Light Rain
7:12 PM 54.0 °F - 54.0 °F 100% 29.84 in 0.5 mi ESE 10.4 mph - 0.03 in Fog , Rain Rain
7:34 PM 54.0 °F - 54.0 °F 100% 29.84 in 2.5 mi ESE 9.2 mph - 0.08 in Rain Rain
7:53 PM 55.0 °F - 55.0 °F 100% 29.84 in 2.5 mi East 6.9 mph - 0.15 in Rain Rain
8:00 PM 55.0 °F - 55.0 °F 100% 29.83 in 3.0 mi ESE 6.9 mph - 0.01 in Rain Rain
8:30 PM 55.0 °F - 55.0 °F 100% 29.83 in 2.5 mi SE 4.6 mph - 0.08 in Rain Rain
8:41 PM 55.0 °F - 55.0 °F 100% 29.85 in 3.0 mi WSW 9.2 mph - 0.10 in Rain Rain
8:48 PM 55.4 °F - 55.4 °F 100% 29.84 in 1.8 mi WSW 4.6 mph - 0.15 in Rain Heavy Rain
8:53 PM 55.0 °F - 55.0 °F 100% 29.85 in 1.5 mi WSW 3.5 mph - 0.18 in Rain Heavy Rain
8:58 PM 55.0 °F - 55.0 °F 100% 29.84 in 2.0 mi WSW 3.5 mph - 0.01 in Rain Rain
9:44 PM 55.0 °F - 55.0 °F 100% 29.84 in 2.5 mi WNW 3.5 mph - 0.11 in Rain Light Rain
9:53 PM 55.0 °F - 55.0 °F 100% 29.85 in 2.5 mi NW 3.5 mph - 0.13 in Rain Light Rain
10:17 PM 54.0 °F - 54.0 °F 100% 29.84 in 3.0 mi WNW 8.1 mph - 0.04 in Rain Light Rain
10:48 PM 53.6 °F - 53.6 °F 100% 29.83 in 10.0 mi NNW 4.6 mph - 0.06 in Rain Light Rain
10:53 PM 54.0 °F - 54.0 °F 100% 29.84 in 10.0 mi NNW 5.8 mph - 0.06 in   Overcast
11:16 PM 54.0 °F - 54.0 °F 100% 29.83 in 10.0 mi WNW 4.6 mph - 0.00 in   Overcast
11:53 PM 54.0 °F - 54.0 °F 100% 29.83 in 10.0 mi West 8.1 mph - 0.00 in   Overcast